Flight Track Log - Related Links

Times and Time Zones

All times are in EDT time to prevent confusion due to time zone crossing. See the ASQ5745 flight status page for this flight to view local times or setup timezone preferences in your user account.

Time Position Orientation Groundspeed Altitude Reporting Facility
EDT Latitude Longitude Course Direction KTS MPH feet Rate Location/Type
Tue 07:22:50 PM 39.8939 -84.2492 323° Northwest 148 170 1,600  Level Indianapolis Center
Tue 07:23:21 PM 39.8894 -84.2786 259° West 177 204 2,300 1,865 Climbing Indianapolis Center
Tue 07:24:04 PM 39.9200 -84.3142 318° Northwest 223 257 3,900 1,886 Climbing Indianapolis Center
Tue 07:25:00 PM 40.0755 -84.3755 323° Northwest  Level FlightAware Approximate
Tue 07:25:06 PM 39.9767 -84.3594 329° Northwest 230 265 5,600  Level Indianapolis Center
Tue 07:26:00 PM 40.1329 -84.4328 323° Northwest  Level FlightAware Approximate
Tue 07:26:08 PM 40.0450 -84.4125 329° Northwest 265 305 8,100  Level Indianapolis Center
Tue 07:27:00 PM 40.1903 -84.4903 323° Northwest  Level FlightAware Approximate
Tue 07:27:10 PM 40.1092 -84.4658 328° Northwest 271 312 10,200  Level Indianapolis Center
Tue 07:28:00 PM 40.2478 -84.5477 323° Northwest  Level FlightAware Approximate
Tue 07:28:12 PM 40.1833 -84.5269 328° Northwest 305 351 11,000  Level Indianapolis Center
Tue 07:29:15 PM 40.2622 -84.5917 328° Northwest 328 377 12,400 1,392 Climbing Indianapolis Center
Tue 07:30:17 PM 40.3425 -84.6578 328° Northwest 336 387 13,900 1,306 Climbing Indianapolis Center
Tue 07:31:19 PM 40.4242 -84.7247 328° Northwest 339 390 15,100 1,306 Climbing Indianapolis Center
Tue 07:32:21 PM 40.5214 -84.8050 328° Northwest 350 403 16,600 1,210 Climbing Indianapolis Center
Tue 07:33:23 PM 40.6067 -84.8758 328° Northwest 358 412 17,600 919 Climbing Indianapolis Center
Tue 07:34:25 PM 40.6972 -84.9506 328° Northwest 370 426 18,500 871 Climbing Indianapolis Center
Tue 07:35:27 PM 40.7867 -85.0247 328° Northwest 379 436 19,400 780 Climbing Indianapolis Center
Tue 07:36:28 PM 40.8756 -85.0989 328° Northwest 380 437 20,100 780 Climbing Indianapolis Center
Tue 07:37:30 PM 40.9400 -85.2083 308° West 384 442 21,000 774 Climbing Indianapolis Center
Tue 07:38:32 PM 40.9908 -85.3283 299° West 374 430 21,700 484 Climbing Indianapolis Center
Tue 07:39:34 PM 41.0525 -85.4747 299° West 380 437 22,000 145 Climbing Indianapolis Center
Tue 07:40:36 PM 41.1069 -85.6047 299° West 402 463 22,000  Level Indianapolis Center
Tue 07:41:38 PM 41.1603 -85.7350 299° West 404 465 22,000  Level Indianapolis Center
Tue 07:42:40 PM 41.2028 -85.8383 299° West 320 368 22,000  Level Indianapolis Center
Tue 07:43:42 PM 41.2422 -85.9314 299° West 295 339 22,000  Level Indianapolis Center
Tue 07:44:44 PM 41.2808 -86.0286 298° West 297 342 22,000 -339 Level Indianapolis Center
Tue 07:45:46 PM 41.2983 -86.1633 280° West 307 353 21,300 -968 Descending Indianapolis Center
Tue 07:46:48 PM 41.3100 -86.2694 278° West 296 341 20,000 -1,161 Descending Indianapolis Center
Tue 07:47:50 PM 41.2425 -86.3208 210° Southwest 310 357 18,900 -1,161 Descending Indianapolis Center
Tue 07:48:52 PM 41.1564 -86.3253 182° South 312 359 17,600 -1,226 Descending Indianapolis Center
Tue 07:50:07 PM 41.0550 -86.3317 183° South 278 320 16,100 -1,200 Descending Chicago Center

Login

Don't have an account? Register now (free) for customized features, flight alerts, and more!